Temp
-26 -26 -25 -25 -24 -23 -22 -21 -21 -21 -20 -21 -21 -20 -20 -20 -20 -19 -18 -17 -17 -17 -17 -17 -16 -16 -15 -15 -15 -15 -15 -16 -16 -16 -16 -16 -16 -16 -15 -15 -15 -15 -15 -15 -15 -15 -15 -15 -15 -15 -16 -15 -15 -14
-26 -26 -25 -25 -24 -23 -21 -21 -21 -21 -20 -21 -21 -20 -20 -20 -20 -19 -18 -18 -17 -17 -17 -17 -16 -16 -16 -15 -15 -15 -15 -16 -16 -16 -16 -16 -16 -16 -16 -16 -16 -15 -15 -15 -16 -15 -15 -15 -15 -15 -15 -15 -15 -15
-26 -25 -25 -25 -25 -23 -21 -21 -21 -21 -21 -20 -21 -20 -20 -19 -19 -19 -19 -18 -18 -17 -17 -17 -16 -16 -16 -16 -15 -15 -16 -16 -16 -16 -16 -16 -16 -16 -16 -15 -16 -15 -16 -15 -16 -16 -15 -16 -15 -15 -15 -15 -16 -16
-25 -25 -25 -25 -24 -23 -21 -21 -21 -21 -20 -20 -20 -20 -20 -20 -19 -19 -19 -18 -18 -18 -17 -17 -17 -16 -16 -16 -16 -15 -15 -16 -15 -16 -16 -16 -16 -16 -16 -16 -15 -15 -15 -16 -15 -16 -16 -16 -15 -16 -16 -16 -15 -15
-25 -25 -25 -25 -24 -23 -21 -21 -21 -21 -20 -20 -20 -20 -20 -20 -20 -19 -19 -18 -18 -18 -17 -17 -17 -16 -16 -16 -16 -15 -16 -16 -16 -16 -15 -15 -15 -15 -15 -15 -15 -15 -15 -15 -15 -15 -16 -16 -16 -16 -16 -15 -15 -15
-25 -25 -25 -25 -24 -23 -22 -21 -21 -21 -20 -20 -21 -20 -20 -20 -19 -19 -19 -18 -18 -18 -17 -17 -17 -16 -16 -16 -16 -16 -15 -16 -16 -15 -15 -15 -15 -15 -15 -15 -15 -15 -15 -15 -16 -15 -16 -16 -16 -15 -15 -15 -15 -15
-24 -25 -25 -25 -24 -23 -22 -21 -21 -21 -20 -20 -20 -20 -20 -20 -19 -19 -19 -19 -18 -18 -18 -17 -17 -17 -17 -16 -16 -16 -16 -16 -16 -15 -15 -15 -15 -15 -15 -15 -16 -16 -16 -16 -16 -16 -16 -15 -15 -15 -15 -15 -14 -14
-24 -25 -25 -25 -25 -23 -22 -21 -21 -20 -20 -20 -20 -20 -20 -20 -20 -20 -19 -19 -19 -19 -18 -18 -17 -17 -17 -17 -17 -17 -16 -16 -16 -15 -16 -16 -16 -16 -16 -16 -16 -16 -16 -15 -15 -15 -15 -15 -15 -14 -14 -14 -14 -14
-24 -25 -25 -25 -24 -23 -22 -21 -20 -20 -20 -20 -21 -20 -21 -20 -20 -20 -20 -19 -19 -19 -19 -18 -18 -18 -17 -17 -17 -17 -17 -17 -16 -16 -16 -16 -16 -15 -16 -16 -16 -16 -16 -16 -15 -15 -15 -15 -14 -14 -14 -14 -14 -15
-24 -25 -25 -25 -24 -23 -21 -21 -20 -20 -20 -21 -20 -20 -20 -19 -20 -20 -20 -20 -19 -19 -18 -18 -18 -18 -18 -18 -17 -17 -17 -17 -17 -17 -16 -16 -15 -16 -16 -16 -16 -16 -16 -15 -15 -15 -15 -15 -15 -15 -15 -15 -15 -15
-25 -25 -25 -25 -24 -23 -21 -21 -21 -20 -20 -20 -20 -20 -19 -20 -20 -20 -19 -19 -19 -19 -18 -18 -18 -18 -18 -18 -18 -17 -17 -17 -16 -16 -16 -15 -15 -17 -17 -15 -15 -15 -15 -15 -15 -15 -15 -15 -15 -15 -15 -15 -16 -16
-25 -25 -25 -25 -24 -23 -21 -21 -21 -20 -21 -20 -20 -20 -21 -20 -20 -20 -19 -19 -18 -17 -17 -18 -19 -18 -18 -18 -18 -18 -18 -17 -16 -16 -16 -15 -16 -16 -16 -15 -15 -15 -15 -15 -15 -15 -16 -16 -16 -16 -16 -16 -16 -17
-25 -25 -25 -25 -24 -23 -21 -21 -20 -20 -21 -21 -21 -21 -21 -20 -20 -19 -18 -18 -17 -17 -17 -18 -19 -20 -20 -19 -19 -18 -18 -17 -17 -16 -16 -16 -17 -17 -16 -16 -16 -16 -16 -16 -16 -17 -17 -17 -17 -17 -17 -17 -17 -17
-25 -25 -25 -25 -24 -23 -22 -21 -20 -21 -21 -21 -21 -21 -21 -20 -19 -18 -18 -19 -18 -19 -19 -19 -19 -20 -19 -19 -19 -19 -18 -18 -17 -16 -17 -17 -17 -17 -17 -17 -17 -17 -17 -17 -17 -17 -17 -17 -17 -17 -17 -17 -17 -17
-25 -25 -25 -25 -24 -24 -23 -22 -21 -21 -21 -21 -21 -20 -19 -19 -19 -19 -19 -19 -19 -19 -19 -20 -20 -20 -20 -19 -19 -19 -18 -18 -17 -17 -18 -18 -18 -18 -18 -18 -17 -17 -17 -17 -18 -18 -18 -18 -17 -17 -18 -18 -18 -18
-25 -25 -25 -25 -24 -24 -24 -24 -22 -21 -21 -21 -21 -19 -19 -19 -19 -19 -19 -19 -19 -19 -20 -20 -20 -19 -19 -19 -19 -19 -18 -18 -18 -18 -18 -18 -18 -18 -18 -18 -18 -18 -18 -18 -18 -18 -18 -18 -18 -18 -18 -18 -18 -19
-25 -25 -25 -25 -25 -24 -24 -24 -23 -22 -22 -22 -21 -20 -19 -19 -19 -19 -19 -20 -20 -20 -20 -20 -20 -19 -19 -19 -19 -18 -18 -19 -19 -19 -19 -19 -19 -18 -18 -18 -18 -18 -18 -18 -18 -18 -18 -19 -19 -19 -19 -19 -19 -19
-25 -25 -25 -25 -24 -24 -24 -24 -23 -22 -22 -21 -20 -20 -20 -20 -19 -20 -20 -20 -20 -20 -20 -20 -20 -20 -19 -19 -19 -19 -20 -19 -19 -19 -19 -19 -18 -18 -18 -18 -18 -18 -18 -19 -19 -19 -19 -19 -20 -20 -20 -20 -20 -20
-25 -25 -25 -25 -25 -25 -24 -23 -23 -23 -22 -21 -21 -21 -21 -20 -20 -20 -20 -20 -20 -20 -20 -20 -20 -19 -19 -19 -19 -20 -20 -19 -19 -19 -19 -19 -19 -19 -19 -19 -19 -19 -19 -19 -19 -19 -19 -19 -20 -20 -20 -20 -20 -20
-26 -25 -25 -26 -26 -26 -25 -24 -23 -23 -23 -22 -22 -21 -21 -21 -21 -21 -20 -20 -20 -20 -20 -20 -19 -19 -20 -20 -20 -20 -20 -19 -20 -20 -20 -19 -19 -19 -19 -19 -19 -19 -19 -19 -19 -19 -19 -19 -19 -20 -20 -20 -20 -20
-26 -26 -26 -26 -26 -26 -26 -25 -24 -24 -23 -22 -22 -22 -22 -21 -21 -21 -20 -20 -20 -20 -20 -20 -20 -20 -20 -20 -20 -20 -20 -20 -20 -20 -20 -20 -20 -20 -20 -20 -20 -20 -20 -20 -20 -20 -20 -20 -20 -20 -20 -20 -20 -20
-27 -27 -26 -26 -27 -27 -26 -26 -25 -24 -24 -23 -23 -23 -23 -22 -22 -21 -21 -21 -21 -20 -20 -20 -20 -20 -20 -20 -20 -20 -20 -20 -20 -20 -20 -20 -20 -20 -20 -20 -20 -20 -20 -20 -20 -20 -20 -20 -20 -20 -20 -20 -20 -20
-28 -27 -27 -27 -27 -27 -27 -26 -26 -25 -24 -23 -23 -23 -23 -23 -22 -22 -22 -21 -21 -21 -21 -21 -21 -20 -20 -20 -20 -21 -20 -20 -21 -21 -21 -21 -21 -21 -21 -20 -20 -20 -20 -20 -20 -20 -20 -20 -20 -20 -20 -21 -21 -21
-28 -28 -27 -27 -28 -28 -28 -27 -27 -26 -25 -24 -24 -24 -23 -23 -23 -23 -22 -21 -21 -21 -22 -21 -21 -21 -21 -21 -21 -21 -21 -21 -21 -21 -21 -21 -21 -21 -21 -21 -21 -21 -21 -21 -21 -21 -21 -21 -21 -21 -21 -21 -21 -22
-29 -28 -28 -28 -28 -28 -28 -28 -28 -27 -26 -26 -25 -24 -24 -24 -24 -24 -23 -23 -22 -22 -22 -22 -22 -22 -21 -21 -21 -21 -21 -21 -21 -21 -21 -21 -21 -21 -21 -21 -21 -21 -21 -21 -21 -22 -22 -22 -22 -22 -22 -22 -22 -23
-29 -29 -28 -29 -29 -29 -29 -29 -29 -28 -27 -27 -26 -26 -25 -25 -25 -24 -24 -24 -24 -24 -23 -23 -23 -22 -22 -22 -22 -22 -22 -22 -22 -22 -22 -22 -22 -22 -22 -22 -22 -22 -22 -22 -22 -22 -23 -23 -23 -23 -23 -23 -23 -23
-30 -29 -29 -29 -29 -29 -30 -29 -30 -29 -28 -28 -27 -27 -26 -25 -25 -25 -24 -24 -24 -24 -25 -25 -24 -24 -23 -23 -23 -23 -23 -23 -23 -23 -23 -23 -23 -22 -22 -23 -23 -23 -23 -23 -24 -24 -24 -24 -24 -24 -24 -24 -24 -24
-30 -30 -30 -30 -30 -30 -30 -30 -30 -30 -29 -28 -28 -27 -27 -27 -26 -25 -25 -25 -25 -25 -25 -25 -25 -25 -25 -25 -25 -25 -25 -25 -25 -25 -25 -24 -24 -24 -24 -24 -25 -25 -25 -25 -25 -25 -25 -25 -25 -25 -25 -25 -25 -25
-31 -30 -30 -30 -31 -31 -31 -31 -31 -31 -30 -30 -29 -28 -28 -27 -27 -27 -26 -26 -26 -26 -26 -26 -26 -26 -26 -26 -26 -26 -26 -26 -26 -26 -26 -25 -25 -25 -25 -25 -26 -26 -26 -27 -26 -26 -26 -26 -26 -26 -26 -26 -27 -27
-31 -31 -31 -31 -31 -31 -32 -31 -31 -31 -31 -31 -31 -30 -29 -28 -28 -28 -27 -27 -27 -27 -27 -26 -26 -26 -26 -26 -26 -26 -26 -26 -26 -26 -26 -26 -26 -26 -26 -27 -27 -27 -27 -27 -27 -27 -28 -28 -28 -28 -28 -28 -28 -28
-31 -31 -31 -31 -32 -32 -32 -32 -32 -32 -32 -32 -32 -31 -31 -30 -29 -29 -28 -28 -28 -28 -28 -28 -28 -27 -27 -27 -27 -27 -27 -27 -27 -27 -27 -27 -27 -27 -27 -28 -28 -28 -28 -28 -28 -29 -29 -29 -29 -29 -29 -29 -29 -29
-31 -31 -31 -32 -32 -32 -32 -33 -33 -32 -32 -32 -33 -33 -32 -32 -31 -31 -30 -30 -29 -29 -29 -29 -29 -29 -29 -28 -28 -28 -28 -28 -28 -28 -28 -28 -28 -29 -29 -29 -29 -29 -29 -29 -30 -29 -29 -29 -29 -29 -29 -29 -30 -30
-31 -31 -31 -32 -32 -32 -32 -33 -33 -33 -33 -33 -33 -33 -33 -33 -33 -33 -32 -32 -31 -31 -31 -30 -30 -30 -30 -30 -30 -30 -30 -30 -30 -30 -30 -30 -30 -30 -30 -30 -30 -30 -30 -30 -29 -30 -30 -30 -30 -30 -30 -31 -30 -30
Height
5422 5413 5404 5399 5397 5401 5407 5418 5427 5437 5446 5455 5465 5474 5483 5491 5499 5507 5514 5520 5526 5531 5536 5539 5542 5546 5549 5550 5552 5556 5559 5560 5563 5566 5571 5575 5580 5584 5588 5591 5595 5599 5601 5605 5608 5611 5615 5616 5619 5623 5626 5627 5630 5632
5417 5409 5400 5394 5393 5397 5404 5415 5425 5435 5443 5453 5463 5471 5481 5488 5496 5504 5511 5518 5523 5528 5532 5536 5539 5544 5548 5549 5551 5553 5557 5559 5562 5565 5570 5576 5580 5584 5587 5590 5594 5598 5601 5604 5608 5611 5612 5614 5616 5619 5621 5624 5627 5629
5411 5403 5395 5389 5388 5391 5400 5411 5422 5432 5441 5450 5461 5470 5479 5487 5494 5502 5509 5515 5520 5525 5529 5533 5537 5541 5545 5547 5549 5552 5555 5558 5562 5566 5570 5575 5578 5582 5585 5589 5592 5595 5597 5600 5604 5606 5609 5611 5613 5616 5618 5621 5623 5625
5406 5397 5390 5384 5383 5387 5396 5407 5418 5429 5440 5449 5458 5467 5476 5484 5492 5499 5506 5512 5518 5522 5526 5531 5534 5538 5542 5545 5547 5549 5553 5558 5561 5565 5569 5572 5576 5579 5581 5584 5586 5591 5594 5597 5600 5603 5605 5608 5610 5613 5615 5617 5619 5620
5400 5390 5383 5380 5379 5384 5392 5403 5414 5425 5436 5446 5455 5465 5473 5480 5488 5495 5502 5508 5514 5520 5524 5527 5531 5535 5539 5543 5546 5547 5552 5556 5560 5563 5566 5569 5573 5577 5580 5582 5585 5587 5591 5594 5596 5599 5602 5605 5607 5610 5612 5613 5615 5616
5392 5383 5376 5374 5374 5378 5388 5400 5411 5422 5433 5443 5452 5460 5469 5477 5484 5491 5498 5505 5511 5516 5521 5524 5529 5532 5536 5540 5544 5547 5549 5553 5557 5561 5564 5567 5570 5574 5577 5579 5582 5584 5588 5591 5594 5597 5600 5602 5605 5607 5609 5610 5610 5611
5385 5377 5370 5366 5368 5373 5382 5395 5408 5419 5430 5441 5449 5459 5466 5473 5480 5487 5497 5505 5509 5513 5517 5522 5525 5529 5533 5537 5541 5545 5548 5551 5554 5557 5561 5564 5568 5571 5575 5577 5580 5583 5585 5588 5592 5595 5597 5600 5603 5604 5604 5605 5605 5605
5378 5370 5364 5361 5362 5369 5378 5391 5404 5416 5427 5437 5447 5455 5462 5468 5475 5484 5492 5498 5504 5509 5513 5517 5522 5526 5530 5534 5538 5542 5545 5548 5551 5554 5558 5562 5565 5569 5574 5575 5578 5581 5583 5586 5590 5592 5594 5596 5597 5598 5599 5599 5599 5599
5371 5363 5359 5357 5358 5365 5375 5388 5401 5414 5426 5436 5445 5451 5456 5463 5472 5482 5488 5493 5499 5505 5507 5515 5519 5523 5526 5530 5534 5538 5542 5545 5548 5552 5555 5559 5563 5569 5573 5574 5575 5578 5581 5583 5585 5588 5589 5590 5591 5592 5592 5592 5592 5592
5365 5358 5354 5353 5356 5362 5372 5386 5400 5413 5424 5434 5441 5446 5451 5462 5472 5476 5482 5487 5492 5497 5503 5509 5515 5519 5523 5525 5529 5534 5537 5540 5544 5550 5551 5554 5561 5566 5569 5570 5571 5574 5576 5578 5580 5582 5584 5584 5584 5585 5585 5584 5584 5583
5362 5354 5351 5351 5354 5360 5370 5384 5397 5410 5422 5429 5435 5442 5447 5456 5463 5467 5473 5480 5485 5491 5498 5504 5510 5515 5518 5522 5524 5527 5531 5535 5539 5545 5546 5550 5558 5559 5559 5563 5566 5568 5569 5571 5573 5575 5575 5576 5577 5577 5577 5576 5576 5576
5358 5351 5347 5349 5352 5359 5369 5381 5393 5404 5412 5422 5430 5437 5443 5447 5453 5460 5467 5473 5479 5488 5494 5500 5507 5512 5514 5518 5520 5523 5525 5528 5532 5538 5541 5545 5550 5550 5552 5554 5558 5559 5562 5563 5565 5565 5566 5567 5567 5567 5567 5568 5567 5567
5356 5348 5345 5347 5351 5358 5367 5378 5390 5400 5410 5419 5425 5427 5433 5439 5447 5456 5463 5470 5478 5487 5495 5500 5503 5505 5509 5512 5515 5517 5519 5523 5528 5530 5536 5541 5539 5542 5545 5547 5549 5551 5553 5555 5556 5557 5558 5558 5559 5559 5559 5559 5559 5559
5356 5350 5347 5347 5351 5357 5365 5375 5385 5394 5404 5412 5417 5419 5426 5436 5447 5454 5462 5471 5480 5486 5490 5492 5495 5497 5501 5505 5506 5510 5514 5517 5520 5526 5532 5532 5532 5534 5537 5540 5542 5544 5545 5547 5548 5549 5550 5550 5551 5551 5551 5551 5550 5549
5357 5351 5348 5348 5351 5357 5364 5371 5380 5390 5400 5406 5409 5416 5428 5438 5444 5450 5457 5465 5472 5476 5480 5483 5486 5490 5494 5495 5500 5503 5507 5508 5515 5523 5524 5524 5526 5528 5530 5533 5535 5536 5538 5539 5540 5541 5542 5542 5542 5542 5542 5542 5541 5540
5358 5351 5348 5348 5351 5356 5362 5368 5377 5386 5393 5400 5406 5416 5426 5432 5438 5447 5453 5459 5464 5466 5470 5474 5478 5481 5486 5489 5494 5498 5502 5507 5514 5515 5515 5516 5518 5520 5523 5525 5526 5528 5530 5531 5532 5532 5533 5534 5534 5534 5534 5533 5533 5532
5357 5351 5347 5346 5349 5355 5361 5367 5374 5382 5387 5392 5403 5411 5419 5427 5433 5440 5446 5450 5453 5457 5462 5466 5471 5476 5480 5483 5488 5492 5499 5504 5505 5506 5507 5508 5511 5513 5515 5517 5519 5521 5522 5523 5524 5524 5525 5525 5525 5525 5525 5524 5524 5523
5357 5350 5345 5343 5346 5352 5359 5364 5371 5375 5379 5388 5399 5407 5414 5420 5427 5433 5438 5441 5447 5451 5456 5461 5466 5469 5472 5476 5482 5488 5491 5493 5497 5499 5501 5503 5505 5507 5509 5511 5512 5513 5514 5515 5516 5516 5516 5516 5516 5516 5516 5516 5515 5514
5355 5349 5343 5341 5342 5347 5354 5360 5364 5367 5374 5385 5393 5400 5407 5414 5420 5425 5430 5435 5441 5445 5449 5453 5456 5461 5465 5470 5474 5479 5483 5487 5490 5492 5495 5497 5499 5501 5503 5505 5506 5507 5507 5508 5508 5508 5508 5508 5508 5508 5508 5507 5506 5504
5351 5346 5340 5337 5338 5342 5348 5354 5357 5362 5370 5378 5385 5392 5399 5406 5412 5418 5423 5429 5433 5437 5441 5446 5451 5455 5459 5463 5467 5472 5475 5479 5482 5485 5488 5491 5493 5495 5497 5498 5499 5500 5500 5501 5501 5501 5500 5500 5499 5499 5498 5497 5496 5494
5347 5342 5337 5333 5332 5335 5341 5346 5352 5357 5363 5371 5377 5384 5391 5397 5404 5410 5416 5420 5425 5429 5434 5439 5444 5448 5452 5456 5460 5464 5468 5472 5475 5478 5480 5483 5485 5487 5489 5490 5492 5493 5493 5493 5493 5493 5492 5491 5491 5490 5489 5488 5486 5484
5341 5336 5331 5328 5327 5328 5333 5338 5344 5349 5357 5363 5370 5375 5381 5387 5393 5399 5406 5410 5415 5421 5427 5432 5436 5440 5444 5448 5452 5456 5460 5463 5466 5469 5472 5475 5477 5479 5481 5482 5484 5485 5485 5485 5484 5484 5484 5483 5482 5481 5480 5478 5475 5472
5334 5331 5327 5322 5321 5321 5325 5331 5336 5341 5348 5354 5360 5365 5371 5377 5383 5388 5393 5401 5408 5413 5417 5422 5427 5431 5435 5439 5443 5447 5451 5455 5458 5460 5463 5466 5468 5470 5472 5474 5475 5475 5475 5475 5475 5474 5474 5473 5472 5470 5468 5465 5462 5459
5329 5325 5321 5317 5315 5316 5317 5322 5328 5333 5337 5343 5350 5356 5363 5369 5374 5377 5383 5391 5398 5404 5407 5411 5416 5420 5424 5429 5433 5437 5441 5445 5448 5451 5453 5456 5458 5460 5462 5463 5464 5464 5464 5464 5464 5464 5463 5461 5460 5457 5455 5452 5449 5445
5325 5320 5316 5311 5309 5309 5310 5313 5319 5325 5329 5334 5340 5346 5353 5359 5363 5368 5374 5381 5386 5392 5397 5401 5405 5409 5414 5418 5423 5427 5430 5434 5437 5440 5443 5445 5447 5449 5451 5452 5452 5453 5453 5453 5452 5451 5450 5448 5446 5444 5441 5438 5435 5431
5317 5314 5311 5306 5303 5303 5304 5306 5310 5316 5321 5325 5330 5336 5343 5349 5354 5359 5365 5371 5376 5381 5385 5389 5394 5398 5403 5407 5410 5414 5418 5421 5424 5428 5430 5432 5434 5436 5437 5438 5439 5440 5439 5439 5439 5438 5436 5434 5432 5430 5427 5424 5421 5417
5311 5309 5305 5301 5298 5297 5297 5299 5303 5307 5312 5317 5321 5327 5332 5338 5343 5350 5357 5362 5366 5370 5375 5379 5383 5387 5391 5394 5397 5400 5404 5408 5411 5414 5416 5418 5420 5421 5423 5425 5425 5425 5425 5425 5424 5424 5422 5420 5418 5415 5412 5409 5406 5402
5305 5303 5301 5298 5294 5292 5291 5291 5294 5298 5303 5307 5313 5316 5321 5326 5333 5340 5345 5351 5356 5362 5367 5371 5374 5377 5380 5383 5386 5389 5392 5395 5397 5400 5402 5404 5407 5408 5410 5411 5411 5412 5412 5411 5411 5410 5408 5407 5404 5402 5399 5396 5393 5389
5299 5297 5296 5294 5291 5288 5286 5286 5287 5290 5294 5299 5302 5307 5312 5317 5323 5329 5335 5340 5345 5351 5355 5359 5363 5366 5370 5373 5375 5378 5381 5384 5386 5388 5391 5393 5395 5396 5397 5398 5399 5399 5399 5398 5397 5396 5395 5393 5390 5388 5385 5382 5379 5375
5292 5292 5291 5290 5288 5285 5282 5281 5281 5282 5285 5289 5294 5298 5303 5308 5313 5319 5324 5329 5334 5339 5343 5347 5350 5354 5357 5360 5363 5367 5370 5373 5375 5378 5380 5382 5383 5384 5385 5386 5386 5386 5386 5386 5385 5384 5382 5381 5378 5376 5373 5369 5365 5361
5285 5286 5287 5286 5285 5283 5280 5277 5276 5276 5278 5281 5285 5290 5294 5299 5304 5310 5315 5319 5323 5327 5330 5334 5337 5341 5344 5348 5351 5355 5358 5361 5363 5366 5368 5370 5371 5372 5373 5374 5374 5375 5375 5374 5373 5372 5371 5368 5366 5363 5359 5355 5351 5346
5280 5281 5282 5282 5282 5281 5278 5275 5273 5272 5273 5275 5278 5282 5286 5290 5295 5300 5304 5309 5313 5316 5320 5324 5327 5330 5333 5336 5340 5343 5346 5349 5352 5354 5356 5358 5360 5361 5362 5363 5363 5363 5363 5362 5361 5360 5358 5356 5353 5350 5346 5342 5338 5334
5275 5276 5277 5278 5278 5278 5277 5275 5272 5271 5270 5271 5272 5274 5277 5282 5286 5291 5295 5299 5303 5307 5310 5314 5317 5320 5324 5327 5330 5333 5336 5338 5341 5343 5345 5347 5348 5349 5350 5351 5351 5351 5351 5350 5349 5347 5345 5343 5339 5336 5333 5330 5327 5324
Wind_Speed
51 52 44 25 17 30 44 56 61 56 49 45 48 37 41 40 38 35 33 29 26 22 20 16 15 15 11 9 12 16 19 20 15 23 27 30 22 17 17 17 21 18 16 14 13 12 13 16 11 14 14 18 20 22
51 52 44 24 18 32 46 56 58 56 51 50 51 44 47 44 39 35 33 29 26 22 21 17 17 14 14 10 13 11 15 16 15 24 22 27 22 20 18 18 20 14 15 16 17 18 13 14 13 12 17 20 20 21
52 52 43 23 17 31 49 61 57 57 53 49 47 48 41 40 36 34 32 29 27 23 21 18 18 17 13 14 11 16 17 13 13 21 25 25 25 27 24 21 21 19 18 20 17 18 17 14 14 14 14 15 17 18
53 50 41 23 17 31 52 60 52 57 59 45 45 41 47 41 40 34 31 30 27 23 21 19 18 20 18 17 14 20 17 20 15 19 22 26 25 21 19 18 25 26 24 20 18 17 19 16 16 14 13 13 13 13
54 49 38 21 18 33 52 58 51 60 55 47 44 44 48 43 39 34 33 32 29 27 23 21 19 21 21 17 12 24 23 19 19 23 22 22 19 17 21 16 17 19 18 17 17 18 13 14 13 13 11 9 10 12
55 47 36 19 20 35 55 60 59 60 53 44 45 47 47 45 41 36 35 33 30 27 23 20 20 22 23 20 18 22 29 28 22 23 21 22 19 19 17 15 16 19 22 16 14 14 13 9 7 9 11 12 14 15
55 45 32 19 19 38 53 63 61 59 51 45 43 37 46 46 46 46 38 31 29 28 25 24 22 20 25 23 17 22 25 28 25 24 24 26 23 21 21 20 17 14 15 18 16 15 13 12 10 13 15 18 19 22
55 42 27 17 20 36 54 64 62 57 52 41 41 44 42 46 44 41 38 34 31 28 28 26 21 20 22 26 20 18 20 20 20 28 24 18 18 14 10 11 12 14 16 16 17 17 17 16 18 21 23 23 22 24
53 38 23 14 22 36 55 63 62 57 48 42 40 42 42 45 44 42 36 34 33 33 32 25 21 21 22 25 29 21 19 22 22 18 23 23 21 16 15 16 19 21 21 20 21 21 22 24 26 28 29 28 29 31
49 34 20 14 24 38 54 63 59 51 46 45 48 46 46 46 42 45 42 39 38 36 34 30 25 20 20 21 25 29 28 25 25 24 25 25 23 19 21 24 24 25 26 27 28 29 30 32 32 31 30 32 33 33
45 31 19 14 25 39 56 61 54 50 50 52 54 49 45 44 47 51 49 45 44 42 40 32 26 21 23 22 22 27 28 29 26 24 26 24 17 19 26 27 27 27 29 30 31 30 32 32 32 32 33 33 31 30
44 30 17 15 27 41 57 59 59 57 59 56 50 47 45 43 53 52 51 49 49 44 36 35 31 32 27 24 24 25 26 30 30 27 28 27 21 24 28 28 27 29 29 29 30 31 32 31 31 31 30 30 31 30
46 26 14 16 28 41 57 64 64 61 60 56 52 52 47 47 44 45 40 42 38 34 27 28 30 30 31 29 29 28 27 26 25 28 27 22 23 25 23 25 27 26 26 25 24 25 26 27 27 27 26 27 29 30
44 26 14 17 29 41 57 68 68 60 53 54 53 55 51 47 40 37 31 27 28 29 31 34 36 34 32 31 33 30 30 30 30 25 19 20 23 22 21 21 22 22 22 22 23 24 24 24 26 27 27 28 29 30
44 27 15 16 30 42 53 62 64 57 55 57 61 57 46 39 34 35 34 30 28 28 30 35 37 38 35 37 35 35 33 34 27 20 21 24 25 24 23 23 24 25 25 25 25 25 26 27 28 28 29 30 31 32
44 30 16 14 31 40 46 54 59 56 54 56 61 55 45 42 39 36 32 29 29 32 33 37 39 39 37 37 35 35 34 29 22 22 24 25 24 24 23 23 24 24 25 26 26 27 27 28 29 30 31 31 31 30
44 32 18 12 28 39 40 47 57 53 52 52 53 54 52 49 43 40 37 33 29 29 28 32 34 34 34 36 33 31 28 26 26 26 27 28 26 25 25 25 26 26 26 27 27 28 28 29 31 31 31 29 29 30
44 35 20 12 25 38 41 44 50 56 58 54 53 52 52 52 46 40 37 36 30 27 29 27 26 31 31 32 29 27 25 27 26 25 25 26 27 25 24 23 24 25 26 27 28 29 29 27 26 26 27 28 30 32
43 35 23 14 22 38 45 43 45 52 58 54 55 54 54 52 49 45 43 39 36 31 28 26 25 27 30 29 28 26 25 23 21 21 22 22 21 20 18 17 18 19 20 21 22 23 24 25 26 28 29 30 31 32
43 34 26 16 18 38 42 48 41 47 56 58 55 53 55 55 51 49 44 40 38 35 32 29 28 27 27 29 26 25 24 22 23 21 23 24 24 24 23 23 23 23 22 22 23 24 26 27 28 29 31 32 34 36
41 34 28 17 16 33 43 44 48 43 50 56 57 53 52 54 55 51 48 43 41 37 33 30 31 32 31 30 29 28 27 23 25 27 28 27 26 25 24 23 23 24 24 25 27 28 29 30 31 33 35 36 39 41
39 32 27 20 16 25 43 40 44 47 45 53 56 55 52 49 50 49 46 42 41 43 40 34 32 33 33 30 29 28 26 26 28 28 27 26 26 26 26 26 26 26 26 28 30 31 32 33 34 36 38 41 44 47
37 32 28 21 15 20 35 45 37 39 47 50 54 55 51 51 51 51 54 52 46 38 38 38 36 33 34 35 33 30 29 31 31 30 29 30 32 33 32 32 32 33 33 33 34 36 37 38 41 42 44 45 47 49
33 31 28 21 15 19 26 40 40 33 38 47 56 52 47 46 46 48 52 54 52 46 43 44 44 39 37 35 35 37 38 37 35 35 36 38 38 37 37 36 36 36 37 38 39 40 42 44 45 46 47 48 49 50
29 30 27 21 16 16 23 31 40 36 33 37 44 52 58 53 47 43 42 44 48 49 44 41 41 41 40 44 43 43 41 38 38 38 39 40 40 40 42 44 45 44 43 43 42 42 43 44 45 46 48 49 51 52
27 25 25 21 16 15 20 28 35 37 36 35 38 39 42 46 46 39 35 32 31 31 37 40 40 44 47 48 47 48 49 50 50 49 49 49 49 47 47 47 47 46 44 42 41 41 42 44 45 47 48 50 51 51
24 21 21 20 16 14 16 24 33 37 39 39 40 41 42 46 48 46 46 44 43 40 39 34 34 38 41 44 43 44 46 46 47 46 45 46 48 49 46 44 42 41 39 40 41 42 44 45 47 48 49 50 50 50
21 17 17 19 16 13 13 19 29 39 41 42 43 45 46 48 51 53 51 48 46 40 37 38 39 38 37 36 36 35 34 35 36 37 38 39 38 37 37 37 37 38 39 40 42 43 45 47 48 48 48 49 51 51
17 15 14 15 18 14 12 14 22 32 42 44 43 44 45 48 48 48 46 46 44 41 42 41 41 40 40 40 40 39 38 39 39 39 38 38 37 38 38 39 39 40 41 42 44 45 46 46 46 48 49 49 50 50
16 13 13 14 16 18 13 12 15 23 33 42 45 43 44 44 44 45 47 47 46 46 44 46 45 45 44 44 45 43 42 42 42 42 41 41 42 41 41 41 41 42 42 43 45 46 48 48 48 49 49 48 49 52
16 12 11 12 13 16 17 11 11 14 21 30 39 44 44 43 44 43 43 44 44 43 45 46 46 47 47 47 47 47 47 46 45 45 45 44 44 44 43 43 42 42 44 45 45 47 48 46 46 46 45 49 51 49
17 12 11 11 11 13 16 13 8 9 12 17 26 33 38 40 41 43 41 40 42 43 44 43 42 42 43 44 47 48 47 47 47 46 45 44 43 42 42 42 43 44 44 43 43 44 44 43 43 46 50 47 41 36
17 14 12 11 10 9 11 13 10 4 5 10 14 21 30 37 36 36 39 39 38 39 39 41 42 42 43 42 42 41 41 41 41 41 40 40 40 39 38 38 38 40 41 42 42 42 42 45 47 43 35 32 33 38
Wind_Direction
337 339 337 318 261 207 204 180 181 187 193 195 191 179 196 189 192 198 201 200 203 203 218 219 211 205 237 249 206 208 213 216 218 207 198 197 198 207 211 217 219 232 216 219 213 184 186 202 222 227 226 224 231 238
336 338 336 317 254 210 197 191 186 191 196 196 191 188 194 192 192 199 202 201 203 203 213 217 211 200 224 235 207 218 214 213 193 191 195 202 207 209 210 212 219 222 225 219 226 226 242 231 235 241 228 230 228 234
335 336 334 316 252 211 193 191 187 190 196 199 196 200 202 190 193 200 203 204 205 204 212 216 211 201 215 233 235 210 198 192 187 195 209 212 222 222 231 233 230 228 231 233 239 225 230 243 239 250 250 244 243 252
334 334 332 312 246 207 195 193 192 192 198 200 200 203 194 191 195 194 205 207 206 207 211 215 214 207 209 224 234 206 189 196 202 211 210 217 221 232 235 239 230 234 240 236 234 225 233 243 244 242 242 234 242 252
334 333 330 306 242 209 196 193 194 195 196 199 199 201 192 198 194 201 208 208 208 207 208 214 217 213 211 220 203 192 178 197 202 209 219 218 227 234 218 250 220 217 224 235 234 229 219 213 219 234 240 247 258 265
334 332 326 301 235 206 197 190 191 191 195 197 197 198 199 201 199 201 207 210 212 211 211 217 219 218 214 219 216 192 186 199 203 212 225 223 233 222 226 226 235 238 229 223 194 201 204 207 220 242 253 265 275 285
334 332 324 294 230 201 195 189 190 192 194 196 187 188 210 211 206 202 203 208 215 219 217 217 219 220 218 221 228 225 209 213 217 216 215 213 214 219 223 216 195 193 200 201 205 220 223 230 250 269 278 280 282 285
335 332 320 285 225 199 191 188 190 192 198 195 190 199 208 208 202 204 203 207 213 224 223 218 219 223 221 220 224 228 231 231 227 216 209 210 212 209 205 228 231 226 227 223 226 232 241 248 267 279 286 285 282 285
335 331 316 272 218 199 190 188 193 196 197 201 201 206 202 205 202 201 205 208 211 217 224 219 221 222 225 220 224 219 226 234 233 227 212 214 217 213 203 224 235 240 244 248 251 253 256 261 271 280 283 282 283 288
337 331 310 256 211 198 188 190 193 193 192 200 199 205 212 212 210 201 203 205 213 219 216 225 221 226 230 231 227 233 233 228 225 228 231 231 226 235 238 237 242 249 252 256 260 262 266 271 274 277 280 283 286 290
339 331 305 246 204 193 187 188 188 192 191 192 201 208 219 218 215 214 211 211 212 217 216 218 214 226 232 235 238 237 236 240 238 235 241 240 240 247 251 248 250 257 262 266 267 268 268 271 274 276 278 281 283 283
342 330 299 236 200 192 185 185 186 188 186 192 199 211 212 214 212 214 216 215 214 216 215 216 219 222 229 235 242 241 244 245 246 245 248 250 257 253 257 261 264 262 263 264 266 267 268 268 269 272 275 278 280 282
347 334 295 229 199 193 186 186 183 183 189 196 200 210 216 217 217 217 219 222 223 224 229 228 227 231 232 236 239 240 241 242 242 244 245 251 253 253 251 252 255 259 265 267 267 267 268 269 271 272 274 276 279 281
349 340 303 228 203 195 189 187 188 186 192 195 191 207 214 218 217 213 215 220 226 235 234 233 228 229 229 228 236 241 245 245 243 242 242 243 245 248 249 250 254 258 260 262 265 267 266 265 267 270 274 278 283 286
348 342 314 230 206 197 193 193 193 193 197 197 202 212 214 212 212 220 227 227 234 240 239 236 237 234 230 230 233 236 240 243 244 249 248 248 250 251 252 253 254 256 259 260 262 264 267 269 272 274 276 278 280 281
347 343 321 238 206 199 196 199 193 196 200 201 208 213 212 212 215 220 227 233 241 249 240 233 230 232 231 234 236 238 242 249 257 254 252 252 252 253 253 254 255 258 260 261 263 265 267 269 271 272 275 277 278 279
344 341 326 252 210 198 194 202 198 200 202 206 208 212 216 216 220 224 227 231 243 239 235 231 232 236 238 237 240 244 248 250 249 250 250 253 255 256 256 258 260 260 261 262 263 265 267 269 273 276 276 277 280 282
342 341 325 280 212 201 193 200 199 202 204 206 208 214 218 221 226 227 229 233 235 228 221 223 235 237 240 240 237 240 242 239 242 248 250 252 254 256 257 258 261 263 265 266 267 268 270 272 273 277 280 283 285 288
342 339 326 292 220 203 199 201 207 207 207 207 210 214 218 225 228 229 231 235 233 231 227 232 238 238 238 236 229 226 233 234 238 245 249 247 243 244 252 262 267 268 269 270 272 274 275 276 277 280 283 287 290 292
339 334 334 293 233 207 203 207 209 210 209 210 212 216 219 221 224 227 232 230 231 231 232 233 235 239 233 231 229 228 234 236 237 240 243 246 251 257 263 269 271 271 271 273 275 278 281 283 286 289 291 294 295 296
334 330 331 306 258 215 207 209 215 213 212 211 213 216 219 223 225 226 229 232 230 231 232 234 230 231 230 229 231 230 235 238 238 243 250 253 257 262 265 267 269 271 273 275 277 278 280 284 286 288 290 291 293 295
328 327 325 320 265 231 212 211 215 218 215 215 215 218 220 223 223 221 223 226 229 229 228 228 226 227 230 225 224 228 235 235 236 244 250 253 254 259 263 266 269 271 274 275 274 276 279 282 286 289 292 294 295 297
325 325 325 319 279 243 221 215 218 216 217 218 216 216 220 225 228 228 227 226 226 226 228 228 228 227 229 227 228 227 227 236 238 243 246 249 251 258 263 265 268 271 275 279 278 279 282 284 287 290 293 294 296 296
321 323 325 317 294 251 229 220 218 216 214 217 214 214 218 222 227 232 232 228 227 224 225 232 234 230 228 230 232 236 238 241 243 248 248 256 259 259 266 265 267 272 274 276 279 281 284 288 290 291 292 292 293 294
317 319 322 317 297 259 237 221 218 217 211 211 217 222 224 226 232 234 233 231 233 232 231 225 226 235 234 230 233 238 241 241 242 247 251 254 258 262 265 269 271 273 276 280 283 285 286 287 287 288 290 291 293 296
311 315 321 319 303 273 240 228 216 213 212 208 206 212 219 224 229 232 222 221 219 215 217 220 228 231 233 233 237 238 240 244 248 250 253 257 261 264 267 269 273 276 278 279 278 278 279 280 283 286 288 291 295 298
303 309 319 322 306 287 253 231 221 215 212 211 208 206 207 207 209 211 207 204 206 218 236 241 239 239 243 245 246 246 248 252 253 252 254 257 260 264 267 269 269 270 271 271 272 275 278 281 284 288 292 295 297 299
294 303 316 330 319 295 271 240 227 218 214 213 213 211 211 211 214 215 216 222 231 231 228 229 231 233 234 235 235 237 238 239 240 243 246 251 255 258 261 262 264 266 269 271 273 276 280 284 289 292 294 297 298 297
286 293 308 324 339 319 287 257 234 226 221 218 218 216 216 215 213 212 210 211 218 221 220 222 225 227 228 228 231 232 232 234 237 242 247 251 255 258 262 265 266 268 270 272 276 281 284 289 292 294 295 296 295 295
273 280 296 312 330 344 320 278 249 233 227 223 222 224 222 220 220 218 219 220 220 219 220 222 221 223 225 227 230 232 235 238 242 245 248 251 254 257 259 261 263 267 271 275 280 285 288 291 292 293 293 294 295 299
258 264 280 298 315 336 342 314 264 246 234 229 226 226 227 226 223 221 221 221 220 221 223 223 226 228 229 230 232 236 239 241 243 245 248 251 254 257 259 263 267 271 277 281 283 286 288 291 293 294 294 297 300 301
246 250 263 280 301 324 343 341 316 252 238 233 230 230 228 230 233 230 228 226 226 226 227 229 231 232 233 236 238 240 242 244 246 248 251 253 256 259 263 267 270 275 279 282 285 287 290 292 292 296 300 300 297 296
234 245 253 260 279 305 344 2 1 329 249 235 233 230 230 229 227 229 232 234 233 233 231 230 231 233 236 238 241 242 243 246 249 252 255 258 261 265 268 271 274 279 281 283 285 287 288 293 296 295 293 292 294 298